TIANWANG 1B (TW-1B)
1 40927U 15051C   19126.52574589  .00011975  00000-0  19140-3 0  9999
2 40927  97.1431 172.2218 0008831 168.4490 297.7175 15.53267749203310
TIANWANG 1A (TW-1A)
1 40928U 15051D   19126.37279973  .00003515  00000-0  88554-4 0  9999
2 40928  97.1502 158.6349 0009850 223.0913 262.9706 15.40507916202506
LAPAN A2
1 40931U 15052B   19126.25639490  .00000526  00000-0 -15906-4 0  9996
2 40931   5.9995   6.3232 0013725 262.6189  97.2520 14.76603922194834
LQSAT
1 40958U 15057A   19126.09113218  .00000007  00000-0  87875-5 0  9995
2 40958  97.9011 196.4578 0018690  25.7395 334.4739 14.73075687192384
CHUBUSAT 2
1 41338U 16012B   19125.90954889 +.00000321 +00000-0 +18307-4 0  9998
2 41338 031.0035 063.0049 0013687 029.3462 330.7940 15.00133492176330
CHUBUSAT 3
1 41339U 16012C   19126.21683605  .00000308  00000-0  17233-4 0  9991
2 41339  31.0101  59.2032 0013302  39.4296 320.7306 15.00310507176378
OUFTI-1
1 41458U 16025C   19125.86274417  .00002406  00000-0  12543-3 0  9993
2 41458  98.1003 210.4855 0167930 144.1508 217.1127 15.05651718165988
E-STAR-2
1 41459U 16025D   19126.46714519  .00001649  00000-0  87904-4 0  9995
2 41459  98.1003 210.8110 0169154 143.1757 218.1231 15.05306642166040
AAUSAT 4
1 41460U 16025E   19126.42970980  .00003692  00000-0  18717-3 0  9994
2 41460  98.0993 211.9056 0159899 136.6572 224.7352 15.07143644166159
NUSAT 1
1 41557U 16033B   19126.47121493  .00001267  00000-0  50314-4 0  9998
2 41557  97.4172 214.2268 0015620  91.2329 269.0699 15.27097542163495
BEESAT 4
1 41619U 16040W   19125.75931274 +.00001271 +00000-0 +56955-4 0  9993
2 41619 097.3710 188.7950 0011710 169.6288 190.5193 15.22995509147173
PRATHAM
1 41783U 16059A   19125.75893085  .00000056  00000-0  19990-4 0  9990
2 41783  98.0713 186.3015 0034141 160.0444 200.2102 14.62987619139125
ALSAT 1N
1 41789U 16059G   19126.40006067  .00000079  00000-0  23911-4 0  9998
2 41789  98.0735 188.8279 0029128 147.5132 212.7871 14.64234642139312
NAYIF 1
1 42017U 17008BX  19126.46969934  .00001336  00000-0  55754-4 0  9992
2 42017  97.4061 194.0045 0005253 336.6079  23.4919 15.25392539123339
MAX VALIER SAT
1 42778U 17036P   19126.46478114  .00000901  00000-0  42516-4 0  9991
2 42778  97.3583 185.0750 0012930  24.4437 335.7410 15.21926446103669
